EZY42QP EGGW-LTBS

Flight info

Callsign EZY42QP
Flight time N/A
Altitude 35000
Route MATCH Q295 BRAIN P44 DAGGA M85 ITVIP L10 DVR UL9 KONAN DCT KOK DCT DEMUL DCT PITES DCT EDISA DCT KUNOD DCT GEDSO DCT VEKEN DCT ELTIB DCT ENFAR DCT TALAS UN130 TSL DCT RIKSO UP14 ODNOD UT491 SONUP
Aircraft A320/M-SDE3FGHIRWY/LB1

Departure

Time N/A
Airport London Luton Airport (EGGW)

Arrival

Time 2026-04-25 16:43
Airport Dalaman International Airport (LTBS)
Time Latitude Longitude Altitude Speed Heading
2026-04-25 16:29 37.55715 28.44077 24551 ft 469 kts 146°
2026-04-25 16:30 37.53039 28.46425 24037 ft 470 kts 146°
2026-04-25 16:30 37.50359 28.48780 23519 ft 469 kts 145°
2026-04-25 16:30 37.47882 28.51435 22913 ft 468 kts 136°
2026-04-25 16:30 37.45653 28.54402 22327 ft 465 kts 135°
2026-04-25 16:31 37.43440 28.57359 21741 ft 461 kts 135°
2026-04-25 16:31 37.41247 28.60286 21175 ft 458 kts 135°
2026-04-25 16:31 37.39070 28.63185 20625 ft 454 kts 135°
2026-04-25 16:31 37.36903 28.66057 20072 ft 451 kts 135°
2026-04-25 16:32 37.34748 28.68909 19547 ft 448 kts 135°
2026-04-25 16:32 37.32607 28.71743 19003 ft 445 kts 135°
2026-04-25 16:32 37.30481 28.74557 18487 ft 443 kts 135°
2026-04-25 16:32 37.28368 28.77353 17929 ft 440 kts 135°
2026-04-25 16:33 37.28208 28.77564 17883 ft 440 kts 135°
2026-04-25 16:33 37.27289 28.78781 17629 ft 438 kts 135°
2026-04-25 16:33 37.25179 28.81574 17043 ft 431 kts 135°
2026-04-25 16:34 37.23136 28.84276 16477 ft 424 kts 135°
2026-04-25 16:34 37.21118 28.86943 15904 ft 417 kts 135°
2026-04-25 16:34 37.19160 28.89524 15375 ft 411 kts 135°
2026-04-25 16:34 37.17218 28.92076 14837 ft 396 kts 135°
2026-04-25 16:35 37.15364 28.94515 14313 ft 377 kts 135°
2026-04-25 16:35 37.13595 28.96846 13783 ft 361 kts 135°
2026-04-25 16:35 37.11896 28.99081 13215 ft 347 kts 135°
2026-04-25 16:35 37.10251 29.01235 12638 ft 336 kts 135°
2026-04-25 16:36 37.08653 29.03317 12013 ft 326 kts 137°
2026-04-25 16:36 37.08091 29.03960 11774 ft 323 kts 144°
2026-04-25 16:36 37.04688 29.05076 10622 ft 307 kts 193°
2026-04-25 16:36 37.02750 29.04040 9978 ft 301 kts 210°
2026-04-25 16:37 37.00957 29.02733 9360 ft 295 kts 210°
2026-04-25 16:37 36.99210 29.01432 8730 ft 290 kts 210°
2026-04-25 16:37 36.97493 29.00149 8115 ft 285 kts 210°
2026-04-25 16:37 36.95804 28.98891 7497 ft 280 kts 210°
2026-04-25 16:38 36.94140 28.97641 6917 ft 276 kts 213°
2026-04-25 16:38 36.92669 28.96143 6416 ft 269 kts 219°
2026-04-25 16:38 36.91274 28.94652 5984 ft 259 kts 219°
2026-04-25 16:38 36.89925 28.93217 5549 ft 250 kts 219°
2026-04-25 16:39 36.88618 28.91831 5124 ft 243 kts 219°
2026-04-25 16:39 36.87339 28.90480 4704 ft 238 kts 219°
2026-04-25 16:39 36.86079 28.89149 4277 ft 237 kts 218°
2026-04-25 16:39 36.84710 28.88028 3811 ft 236 kts 210°
2026-04-25 16:40 36.83290 28.86993 3344 ft 236 kts 210°
2026-04-25 16:40 36.81874 28.85963 2860 ft 236 kts 210°
2026-04-25 16:40 36.80461 28.84937 2385 ft 234 kts 210°
2026-04-25 16:40 36.79113 28.83861 1853 ft 232 kts 219°
2026-04-25 16:41 36.77955 28.82536 1360 ft 219 kts 225°
2026-04-25 16:41 36.77598 28.82087 1175 ft 213 kts 224°
2026-04-25 16:41 36.75017 28.80532 559 ft 151 kts 193°
2026-04-25 16:42 36.74049 28.80180 323 ft 140 kts 196°
2026-04-25 16:42 36.73122 28.79866 142 ft 136 kts 195°
2026-04-25 16:42 36.71937 28.79460 15 ft 123 kts 195°
2026-04-25 16:42 36.71450 28.79298 12 ft 90 kts 195°
2026-04-25 16:43 36.70971 28.79133 13 ft 55 kts 196°
2026-04-25 16:43 36.70724 28.79033 13 ft 30 kts 209°
2026-04-25 16:43 36.70582 28.78870 14 ft 24 kts 232°
2026-04-25 16:43 36.70643 28.78809 13 ft 18 kts 15°
2026-04-25 16:44 36.70816 28.78867 13 ft 33 kts 15°
2026-04-25 16:44 36.71066 28.78951 13 ft 38 kts 15°
2026-04-25 16:44 36.71323 28.79038 13 ft 39 kts 15°
2026-04-25 16:44 36.71583 28.79127 12 ft 39 kts 15°
2026-04-25 16:45 36.71809 28.79206 12 ft 14 kts 11°
2026-04-25 16:45 36.71867 28.79178 12 ft 16 kts 312°
2026-04-25 16:45 36.71901 28.79042 13 ft 16 kts 303°
2026-04-25 16:45 36.72001 28.79050 12 ft 19 kts 16°
2026-04-25 16:46 36.72093 28.79086 12 ft 9 kts 32°
2026-04-25 16:46 36.72090 28.79136 12 ft 6 kts 108°
2026-04-25 16:46 36.72087 28.79148 12 ft 1 kts 105°
2026-04-25 16:46 36.72086 28.79151 12 ft 0 kts 105°